Location: Berlin
(42.3812°N, 71.6370°W)
Time: 05:08:22
(UTC+00:00)

Cosmos 1932 - Pass Details

Date: 15 November 2025
Orbit: 921 x 1008 km, 65.0° (Epoch: 09 December)

Event Time Altitude Azimuth Distance (km) Brightness Sun altitude
Exits shadow 08:52:10 81° 13° (NNE) 1,023 4.5 -30.5°
Maximum altitude 08:52:25 84° 56° (NE) 1,018 4.5 -30.5°
Drops below altitude 10° 08:58:57 10° 146° (SE) 2,761 7.2 -29.3°
Sets 09:01:31 0° 147° (SSE) 3,699 8.0 -28.8°
